Main page
METAR-TAF:

METAR-TAF

Airports :

Yasuj, Iran

Yasuj Airport

latitude: 30-41-49N, longitude: 051-33E, elevation: 1825 m

Current weather observation

The report was made 1 hour and 6 minutes ago, at 18:00 UTC
Wind 6 kt from the East
Temperature 5°C
Humidity 26%
Pressure 1021 hPa
Visibility 10 km or more
no clouds below 1500 m and no cumulonimbus

METAR: OISY 191800Z 09006KT CAVOK 05/M13 Q1021

Time: 22:36 (19:06 UTC)


TAF: missing

Weather observations and forecasts of more than 4000 airports (METAR and TAF reports).

The available stations are represented by yellow and red dots on the map.

Hover mouse over dot to see the name of the station.

Then click to see weather observations and forecasts.

To change the map : click on the green buttons with a black cross to zoom in, on the green button with a dash to zoom out, or on the green arrows for adjacent maps.


METAR-TAF: